Temperature
27 27 27 28 29 29 30 30 30 31 32 31 30 30 31 31 31 30 29 28 27 26 25 25 24 23 22 21 20 20 20 19 19 18 18 18 18 18 18 18 18 18 18 18
27 27 28 29 30 30 29 29 29 31 31 31 30 30 31 31 31 30 29 28 27 26 25 24 24 23 22 21 20 20 19 19 19 18 18 18 18 18 18 18 18 18 18 17
27 28 29 29 29 29 29 29 29 30 30 31 30 29 30 31 31 30 29 28 27 26 25 24 23 23 22 21 20 19 19 19 19 18 18 18 17 17 17 17 17 18 18 17
28 29 29 29 29 28 28 30 30 30 29 29 29 27 29 30 30 29 28 28 27 26 25 24 23 22 22 21 20 20 19 19 18 18 18 18 18 17 18 18 18 17 17 17
28 29 29 28 28 29 29 30 30 29 29 29 29 28 29 29 28 29 28 27 27 26 25 24 23 22 21 21 20 19 19 19 18 18 18 18 17 17 17 17 17 17 17 17
28 29 29 29 29 30 30 29 29 29 29 27 28 28 28 29 28 28 28 27 26 25 25 24 23 22 21 21 20 19 19 18 18 18 17 17 17 17 17 17 17 17 17 17
27 28 29 29 28 29 29 27 27 26 27 27 29 28 27 29 29 28 28 27 26 25 24 23 23 22 21 20 20 19 18 18 18 17 17 17 17 17 17 17 17 17 17 17
26 27 28 29 28 28 28 28 26 25 26 27 28 28 27 29 28 28 27 26 25 25 24 23 22 21 21 20 19 19 18 18 17 17 17 17 17 17 17 17 16 16 16 16
27 27 29 29 29 28 28 28 28 27 27 27 28 28 27 27 27 27 26 25 24 24 23 22 22 21 20 20 19 19 18 18 17 17 17 17 17 16 16 16 16 16 16 16
27 26 28 29 29 28 28 28 27 27 25 25 27 27 26 26 26 26 25 25 24 23 22 22 21 21 20 19 19 18 18 17 17 17 16 16 17 16 16 16 16 16 16 16
27 25 26 27 27 27 27 27 27 26 27 26 25 25 27 25 25 25 25 24 23 22 22 21 21 21 20 19 18 18 17 17 17 16 16 16 16 16 16 16 16 16 16 16
26 25 25 26 28 28 28 27 26 25 25 26 26 25 26 26 25 25 24 23 22 22 21 21 20 20 19 19 18 17 17 17 16 16 16 16 16 16 16 16 16 16 16 16
25 24 23 24 26 27 27 27 27 26 25 25 25 25 25 25 25 24 23 23 22 21 21 21 20 19 19 18 18 17 17 16 16 16 16 16 16 16 15 15 15 15 15 15
24 23 23 23 24 25 25 26 27 26 25 25 25 24 24 24 24 24 23 22 21 20 20 20 19 19 18 18 17 17 16 16 16 16 16 16 16 15 15 15 15 15 15 15
24 23 24 24 25 26 25 26 26 26 26 25 25 25 23 23 23 23 22 21 21 20 19 19 18 18 18 17 17 17 16 16 16 16 15 15 15 15 15 15 15 15 15 15
23 22 23 23 25 25 25 25 26 25 26 26 25 24 24 23 22 22 21 21 20 19 19 18 18 17 17 17 17 16 16 16 15 15 15 15 15 15 15 15 15 14 14 14
22 22 21 22 24 24 23 24 25 25 25 25 24 24 23 22 22 21 20 20 19 19 18 18 17 16 16 16 16 16 16 15 15 15 15 15 15 15 15 14 14 14 14 14
21 21 21 21 22 21 23 25 25 24 24 24 24 23 23 22 21 20 19 19 18 18 17 17 16 16 16 16 16 15 15 15 15 15 15 15 14 14 14 14 14 14 14 14
22 21 20 20 21 21 23 23 23 23 23 23 23 22 22 21 21 20 19 18 18 17 17 16 16 15 15 15 15 15 15 14 14 14 14 14 14 14 14 14 14 14 14 13
22 21 20 20 20 20 21 22 23 23 21 22 21 21 21 21 20 19 18 17 17 16 16 15 15 15 14 14 14 14 14 14 14 14 14 14 14 14 14 13 13 13 13 13
20 20 19 19 19 20 21 22 22 21 20 20 20 19 19 19 18 17 17 16 16 15 15 15 14 14 14 14 14 13 13 13 13 13 13 13 13 13 13 13 13 13 13 13
20 19 19 19 19 18 20 20 19 18 19 19 18 18 18 17 17 16 16 15 15 15 14 14 14 14 14 13 13 13 13 13 13 13 12 12 12 12 12 13 13 13 13 12
20 19 19 18 18 18 18 18 18 18 18 18 17 17 17 16 16 16 15 15 14 14 14 14 14 13 13 13 13 13 12 12 12 12 12 12 12 12 12 12 12 12 12 12
19 20 19 18 18 18 18 18 18 18 17 17 17 16 16 16 15 15 14 14 14 14 13 13 13 13 13 12 12 12 12 12 12 12 12 12 12 12 12 12 12 12 12 12
18 18 18 18 18 18 18 18 18 17 17 16 16 16 15 15 15 14 14 13 13 13 13 13 12 12 12 12 12 12 12 12 12 11 11 11 12 12 12 12 12 12 12 12
18 18 17 17 18 17 17 17 17 17 16 16 15 15 15 14 14 13 13 13 13 13 12 12 12 12 12 12 12 11 11 11 11 11 11 11 11 12 12 12 12 12 12 12
Wind_Speed
12 13 14 16 17 18 16 14 14 12 10 11 13 13 12 12 12 12 11 10 11 11 11 10 9 10 10 9 9 9 7 7 6 5 4 4 3 3 2 2 3 4 4 4
12 16 16 15 16 16 16 15 15 11 9 9 11 13 13 11 12 11 10 9 11 11 11 10 10 10 10 10 9 9 8 8 6 4 4 4 4 3 3 2 3 4 4 3
16 13 14 15 15 14 15 15 15 13 8 9 10 14 13 12 11 10 9 9 9 10 10 10 10 9 11 10 10 8 7 8 7 6 4 4 3 3 3 3 3 3 4 4
15 14 12 13 13 14 14 14 14 14 12 10 10 11 12 11 10 9 8 8 8 9 10 10 11 10 10 10 9 8 8 7 6 6 5 6 5 4 4 3 3 3 3 4
12 13 14 14 13 14 13 12 13 14 14 14 12 12 10 11 10 8 7 6 8 10 11 10 11 11 10 10 9 8 8 7 6 6 5 5 5 4 3 3 4 3 3 3
14 12 12 12 12 13 12 12 13 14 13 16 14 13 10 8 9 8 8 6 7 8 8 8 9 9 9 9 9 9 8 7 6 6 5 5 5 4 4 4 4 3 3 3
14 15 14 12 13 12 12 11 9 10 11 13 12 12 6 5 8 9 8 8 8 8 8 7 8 9 9 9 9 9 9 8 7 5 5 5 4 4 4 4 4 3 3 3
13 13 13 12 13 11 12 13 11 9 10 10 11 9 4 3 3 5 7 7 7 6 7 7 7 7 7 8 8 9 9 8 7 6 5 4 5 4 3 3 4 3 3 2
9 9 8 9 10 12 13 14 14 13 16 13 8 5 4 4 4 3 4 5 6 5 6 7 7 7 7 7 6 7 8 8 7 7 5 5 5 4 4 3 3 2 1 2
9 10 9 8 8 13 14 12 9 12 11 12 10 7 5 5 5 5 4 4 4 5 6 6 7 7 8 7 6 6 7 7 7 7 6 5 5 4 4 4 3 3 2 2
10 11 11 10 11 11 11 12 10 10 11 11 10 3 4 6 5 6 5 5 4 4 6 6 6 7 7 7 7 6 6 6 6 6 5 5 5 4 4 3 3 3 2 2
9 9 10 11 10 10 12 12 11 9 10 11 10 2 5 6 5 6 6 5 4 4 5 6 7 6 6 6 6 6 5 5 5 5 5 4 4 4 3 3 3 3 3 3
6 6 8 9 9 10 10 11 11 10 9 11 11 3 5 4 4 5 6 6 5 5 4 5 6 6 5 5 5 5 5 5 5 5 5 4 4 3 3 3 3 3 3 3
6 9 11 11 8 8 10 12 13 13 11 12 11 4 5 3 2 3 4 5 5 5 4 5 5 4 5 4 4 5 4 4 4 4 4 4 4 4 3 3 3 3 3 3
6 11 13 14 14 12 12 13 13 13 12 12 10 5 5 4 2 2 3 4 4 4 4 4 5 4 3 3 3 3 3 3 3 3 4 4 4 4 3 3 3 2 3 3
5 8 11 14 14 13 13 12 12 12 11 12 8 5 4 4 3 2 1 3 3 3 3 4 4 3 3 2 2 2 2 3 3 3 3 4 4 4 4 3 2 2 2 2
6 7 10 12 13 13 13 11 10 10 10 10 8 4 3 4 4 3 3 2 2 3 3 4 3 2 2 1 1 1 2 2 3 3 2 3 3 3 3 3 2 2 2 2
8 8 7 10 11 14 8 6 8 8 7 5 3 1 2 3 4 4 2 2 1 2 2 2 2 1 1 1 1 1 1 1 2 2 2 2 2 2 2 2 2 1 2 3
8 7 7 8 11 10 7 5 6 7 6 3 2 1 1 3 3 3 3 2 2 1 2 3 2 1 1 1 1 1 1 1 1 2 2 2 2 2 2 2 2 1 1 3
9 7 7 8 10 8 4 3 5 5 5 3 3 1 1 2 2 2 3 3 2 2 2 2 2 2 2 0 1 1 1 1 0 1 1 1 1 1 1 1 1 1 2 3
9 9 10 11 10 5 2 3 3 4 0 5 4 3 2 2 2 2 3 3 3 2 1 2 2 2 2 2 2 1 1 1 0 1 1 1 1 1 1 1 1 2 2 3
8 7 8 8 8 5 4 2 2 3 4 4 5 4 4 4 4 3 3 3 3 2 2 2 2 2 2 2 1 1 1 1 1 1 1 1 1 2 1 1 2 2 3 3
4 4 3 2 2 1 4 3 3 2 3 3 3 3 3 3 3 3 3 3 2 1 1 1 1 1 1 1 1 1 1 1 1 1 1 2 2 2 1 2 3 3 2 2
3 3 3 3 2 0 1 2 1 2 2 2 3 3 2 2 2 2 2 2 1 1 0 0 0 1 1 1 2 1 2 2 2 2 2 2 3 3 2 2 2 2 2 2
6 5 3 3 4 3 3 3 2 1 2 2 2 2 2 2 1 1 1 1 1 1 1 1 1 1 1 1 1 2 2 2 2 2 3 3 3 3 2 2 1 2 1 2
6 6 5 4 2 2 2 3 2 2 1 1 1 1 1 1 0 0 0 1 0 0 1 1 1 1 1 2 2 2 2 2 3 3 3 3 3 3 3 2 2 0 2 4
Wind_Direction
215 227 231 230 231 245 257 263 261 245 230 225 232 238 235 219 207 200 195 188 182 179 173 166 163 154 145 145 147 149 154 148 149 154 163 164 165 159 149 137 142 151 155 153
219 230 237 242 244 245 252 258 263 256 230 232 237 243 235 220 214 207 199 197 188 181 171 161 159 153 149 147 150 155 154 154 163 163 168 171 163 162 155 144 146 154 154 158
229 233 230 239 245 247 248 254 261 266 248 241 246 248 234 224 214 201 200 201 196 179 170 163 162 156 154 154 155 160 158 159 171 164 166 161 149 152 150 155 160 165 159 160
238 242 237 235 240 246 250 248 257 261 257 245 234 253 237 219 210 201 195 196 190 176 171 170 168 163 161 160 158 151 150 158 167 169 175 168 170 175 174 166 158 159 166 170
239 238 241 240 236 242 251 258 261 261 260 262 247 250 235 204 206 203 193 193 185 184 176 167 167 163 160 158 157 153 148 154 166 176 179 177 177 173 159 154 153 160 168 172
249 246 242 243 241 239 251 256 259 258 255 250 246 249 246 211 202 200 188 191 187 177 163 157 155 150 152 154 155 152 151 154 161 176 176 183 181 171 160 152 154 171 174 174
240 237 235 235 240 232 238 243 244 240 241 247 240 239 237 192 182 185 177 183 170 156 149 147 150 151 152 155 156 154 155 159 163 171 179 183 183 177 171 167 170 181 181 178
238 235 224 219 226 232 230 238 243 253 255 256 244 232 205 154 153 157 155 154 145 149 143 141 142 142 147 150 154 154 156 162 166 170 175 176 180 184 184 185 184 185 192 183
254 246 222 217 216 235 236 238 251 264 271 268 250 213 165 136 123 110 121 135 137 142 137 134 133 142 147 145 144 150 156 160 167 173 169 164 174 187 187 184 189 195 193 193
269 271 242 227 224 232 241 245 251 256 268 272 258 224 190 168 162 152 145 145 137 144 137 127 129 141 142 138 138 139 145 160 167 169 174 178 179 185 181 182 189 189 194 208
258 268 253 232 225 233 234 240 247 260 265 266 270 250 135 143 154 156 141 128 130 138 135 129 122 118 126 134 139 137 143 151 159 164 165 170 171 175 175 181 191 191 189 198
248 265 261 245 237 237 239 240 235 245 262 272 277 275 100 117 127 129 126 123 118 122 126 131 126 125 129 131 136 141 141 152 154 154 157 163 159 165 171 185 194 195 202 198
264 259 254 245 236 230 241 242 244 244 256 262 266 222 119 104 109 120 122 120 123 122 124 124 122 125 123 125 132 141 147 152 151 155 160 152 160 170 182 185 190 199 206 203
242 251 250 252 254 252 249 249 247 244 245 254 259 211 148 140 121 115 122 122 125 126 122 109 107 115 120 125 136 149 153 149 150 151 156 161 170 179 184 185 196 202 195 206
241 247 254 264 266 261 258 258 254 251 254 259 268 242 163 142 127 117 125 128 126 127 130 121 117 111 112 122 138 146 150 146 151 154 158 165 173 174 174 186 194 201 199 212
227 254 261 266 266 263 257 256 252 254 260 263 265 274 153 137 139 123 131 146 134 141 143 134 129 125 118 123 143 145 142 149 157 163 172 169 172 175 178 185 186 199 201 207
242 244 255 259 257 263 255 257 254 251 255 262 264 262 160 155 168 169 181 157 157 166 155 136 120 116 131 149 163 192 174 162 174 180 173 169 174 181 181 189 179 196 208 208
250 254 255 263 264 253 252 257 263 255 253 266 270 244 186 166 145 124 132 132 125 126 124 114 125 151 158 143 133 137 160 162 173 179 196 203 198 189 184 179 177 194 218 219
227 234 246 253 252 251 253 253 265 260 258 287 289 245 208 128 139 134 128 117 108 84 86 92 94 107 116 124 142 149 156 187 210 213 210 221 215 203 206 203 197 204 225 235
213 216 234 250 253 251 259 304 309 265 239 31 25 357 109 126 225 122 94 91 89 89 92 109 121 95 89 98 136 162 220 196 263 284 271 264 235 231 243 228 202 215 240 243
210 218 231 249 255 261 315 318 299 242 284 34 44 41 63 53 55 85 86 88 84 83 105 116 126 121 152 185 184 191 251 248 259 291 288 272 255 244 246 248 242 226 237 241
217 226 231 243 250 259 13 14 19 30 17 33 34 30 37 70 92 103 92 89 90 89 87 97 119 133 144 158 179 206 259 282 276 271 279 275 261 258 252 238 248 241 240 235
231 246 248 250 231 70 45 64 67 34 7 26 29 30 37 56 61 67 76 82 82 84 95 90 110 118 130 155 188 218 257 260 258 254 258 255 251 252 221 230 239 236 235 239
281 284 239 238 223 237 36 65 47 37 23 37 41 24 27 34 29 48 57 65 50 47 74 131 123 159 177 193 213 226 244 247 240 236 238 231 223 227 218 238 242 238 250 242
309 304 274 242 247 271 324 339 334 23 49 50 30 16 2 355 13 38 25 56 38 15 317 255 211 202 219 226 228 233 241 233 226 235 236 239 236 227 221 230 249 232 230 201
285 282 274 270 274 259 285 308 312 330 341 360 340 356 284 246 130 122 64 89 120 283 296 256 236 234 238 235 236 238 228 234 229 231 239 244 239 225 223 220 210 161 194 170
Height
1466 1467 1465 1459 1456 1455 1453 1453 1453 1447 1442 1447 1451 1453 1452 1453 1456 1460 1464 1468 1472 1476 1480 1483 1486 1488 1490 1493 1495 1496 1499 1501 1503 1504 1506 1508 1510 1511 1512 1513 1514 1515 1516 1517
1462 1462 1455 1452 1450 1450 1452 1455 1453 1444 1440 1445 1450 1451 1448 1449 1452 1456 1460 1464 1468 1472 1477 1480 1484 1486 1488 1490 1493 1495 1497 1499 1501 1503 1505 1507 1509 1510 1512 1513 1513 1514 1516 1517
1458 1452 1449 1450 1450 1452 1452 1454 1451 1448 1443 1443 1450 1454 1448 1446 1449 1453 1457 1461 1465 1469 1473 1477 1481 1484 1486 1488 1490 1493 1495 1497 1500 1502 1504 1506 1508 1509 1510 1511 1512 1514 1515 1516
1450 1445 1446 1448 1450 1452 1455 1446 1446 1447 1451 1452 1452 1465 1450 1445 1446 1450 1454 1458 1462 1466 1471 1475 1478 1481 1484 1486 1489 1491 1493 1495 1497 1500 1502 1504 1506 1507 1508 1510 1511 1512 1514 1515
1447 1444 1444 1448 1447 1448 1447 1442 1443 1445 1449 1453 1449 1460 1451 1443 1448 1449 1451 1456 1460 1464 1468 1472 1476 1479 1482 1485 1487 1489 1491 1493 1496 1498 1500 1503 1504 1506 1507 1508 1510 1511 1512 1513
1442 1439 1440 1442 1442 1443 1443 1444 1445 1445 1448 1462 1451 1456 1455 1443 1445 1448 1451 1455 1458 1462 1466 1470 1474 1478 1481 1484 1486 1488 1489 1492 1494 1496 1499 1501 1503 1504 1506 1507 1508 1509 1511 1512
1445 1440 1437 1439 1443 1442 1444 1454 1465 1466 1466 1461 1442 1448 1451 1439 1439 1443 1448 1453 1457 1460 1464 1469 1473 1476 1479 1482 1484 1486 1488 1490 1492 1494 1496 1499 1501 1503 1505 1506 1507 1508 1509 1510
1449 1446 1436 1435 1441 1444 1444 1449 1466 1475 1470 1457 1444 1449 1446 1437 1440 1443 1447 1452 1456 1460 1463 1467 1471 1474 1477 1481 1483 1485 1487 1489 1491 1493 1494 1496 1499 1501 1503 1504 1506 1507 1508 1509
1443 1443 1431 1431 1434 1439 1445 1446 1442 1453 1452 1456 1447 1443 1444 1440 1442 1446 1449 1452 1456 1460 1463 1467 1469 1473 1476 1479 1482 1484 1486 1487 1489 1491 1493 1494 1496 1498 1500 1502 1504 1505 1506 1508
1439 1446 1434 1432 1434 1436 1438 1440 1445 1454 1465 1468 1453 1448 1450 1447 1446 1448 1451 1454 1457 1461 1464 1466 1469 1472 1475 1478 1481 1483 1485 1487 1488 1490 1491 1493 1495 1496 1498 1500 1501 1503 1504 1506
1438 1447 1440 1435 1440 1441 1441 1443 1445 1449 1449 1462 1464 1458 1438 1444 1445 1448 1452 1455 1460 1462 1464 1467 1469 1472 1475 1477 1480 1482 1484 1486 1487 1489 1490 1492 1493 1495 1496 1498 1499 1500 1502 1503
1439 1443 1445 1438 1431 1431 1435 1438 1444 1459 1459 1451 1456 1460 1439 1442 1446 1449 1453 1456 1460 1462 1464 1466 1469 1472 1475 1477 1479 1481 1483 1485 1486 1487 1489 1490 1491 1493 1494 1496 1497 1498 1500 1501
1442 1448 1456 1450 1443 1436 1436 1436 1438 1443 1451 1454 1458 1458 1444 1446 1449 1451 1453 1457 1460 1462 1465 1467 1469 1472 1474 1477 1479 1481 1482 1484 1485 1487 1488 1488 1490 1491 1492 1494 1495 1496 1497 1498
1444 1447 1453 1457 1449 1442 1441 1438 1436 1441 1450 1452 1449 1451 1449 1448 1450 1452 1455 1458 1460 1463 1465 1467 1469 1471 1474 1476 1478 1480 1482 1483 1485 1486 1486 1487 1488 1489 1490 1492 1493 1494 1495 1496
1443 1448 1445 1442 1436 1436 1438 1438 1436 1439 1440 1446 1444 1445 1448 1449 1452 1454 1456 1458 1461 1463 1465 1467 1469 1471 1474 1476 1478 1480 1481 1482 1483 1484 1485 1486 1487 1488 1489 1490 1491 1492 1493 1494
1442 1447 1446 1445 1437 1435 1437 1436 1435 1437 1437 1439 1441 1445 1444 1448 1452 1455 1458 1459 1461 1463 1465 1467 1469 1471 1473 1475 1477 1479 1480 1481 1482 1483 1484 1485 1486 1486 1487 1488 1489 1490 1491 1492
1443 1448 1451 1449 1438 1437 1443 1437 1436 1437 1437 1439 1445 1446 1445 1449 1453 1456 1457 1459 1461 1463 1465 1467 1469 1471 1473 1475 1476 1478 1479 1480 1481 1482 1483 1483 1484 1485 1486 1486 1487 1488 1488 1489
1446 1448 1449 1450 1448 1458 1443 1432 1432 1435 1436 1437 1440 1443 1446 1449 1453 1456 1458 1460 1461 1463 1465 1466 1468 1471 1472 1474 1475 1477 1478 1478 1479 1480 1481 1482 1483 1483 1484 1484 1484 1485 1486 1487
1441 1446 1451 1452 1453 1448 1439 1434 1435 1438 1440 1440 1442 1444 1446 1449 1452 1456 1458 1460 1462 1464 1465 1466 1468 1470 1471 1472 1473 1475 1476 1477 1478 1479 1479 1480 1480 1481 1481 1481 1482 1482 1483 1484
1437 1443 1451 1452 1456 1455 1445 1436 1435 1438 1445 1443 1443 1445 1447 1450 1453 1458 1459 1461 1462 1463 1465 1466 1467 1468 1470 1471 1473 1474 1475 1475 1476 1476 1477 1478 1478 1478 1479 1479 1479 1480 1480 1481
1442 1445 1450 1452 1453 1448 1442 1438 1438 1449 1452 1447 1447 1448 1450 1452 1456 1459 1460 1461 1462 1463 1464 1465 1466 1467 1469 1470 1472 1472 1473 1473 1474 1475 1475 1475 1476 1476 1477 1477 1477 1478 1478 1479
1442 1446 1449 1450 1455 1456 1444 1442 1446 1452 1450 1450 1451 1452 1453 1455 1456 1458 1459 1461 1462 1463 1464 1465 1465 1466 1467 1469 1470 1469 1471 1472 1473 1473 1473 1473 1474 1474 1474 1475 1475 1475 1476 1476
1439 1442 1444 1449 1453 1450 1448 1449 1451 1452 1451 1452 1453 1454 1455 1455 1456 1458 1460 1461 1462 1463 1464 1464 1464 1465 1466 1467 1468 1468 1469 1470 1470 1471 1471 1471 1472 1472 1472 1472 1472 1473 1473 1474
1440 1440 1442 1446 1447 1448 1449 1450 1451 1452 1453 1454 1455 1455 1456 1456 1458 1459 1460 1461 1462 1462 1463 1463 1464 1464 1465 1466 1467 1467 1467 1468 1468 1469 1469 1470 1470 1469 1470 1470 1470 1470 1471 1471
1445 1443 1443 1446 1447 1448 1449 1451 1451 1452 1453 1454 1455 1456 1456 1457 1458 1459 1460 1461 1461 1462 1462 1462 1462 1462 1463 1464 1464 1465 1465 1466 1466 1467 1467 1467 1467 1467 1467 1468 1468 1468 1468 1468
1447 1446 1447 1447 1447 1449 1451 1451 1451 1451 1452 1454 1455 1455 1457 1458 1458 1459 1459 1460 1460 1460 1461 1461 1461 1461 1461 1461 1462 1463 1463 1464 1464 1465 1465 1466 1465 1465 1466 1466 1466 1466 1466 1466